www.pogodaiklimat.ru
ПОГОДА в Имени Федорова
Время
(UTC), дата
00 7.10
03 7.10
06 7.10
09 7.10
12 7.10
15 7.10
18 7.10
21 7.10
00 8.10
03 8.10
06 8.10
09 8.10
12 8.10
15 8.10
18 8.10
21 8.10
00 9.10
03 9.10
06 9.10
09 9.10
12 9.10
15 9.10
18 9.10
21 9.10
00 10.10
03 10.10
06 10.10
09 10.10
12 10.10
15 10.10
18 10.10
21 10.10
00 11.10
03 11.10
06 11.10
09 11.10
12 11.10
15 11.10
18 11.10
21 11.10
00 12.10
03 12.10
06 12.10
09 12.10
12 12.10
15 12.10
18 12.10
21 12.10
00 13.10
03 13.10
06 13.10
09 13.10
12 13.10
15 13.10
18 13.10
21 13.10
Ветер
(напр.,м/с)
Видим. Явления Облачность Т
(С)
Тd
(С)
f
(%)
Тe
(С)
Тes
(С)
Комфортность P
(гПа)
Po
(гПа)
Тmin
(С)
Tmax
(С)
R
(мм)
R24
(мм)
S
(см)
СЗ 6
{11}
2000 м слаб. ливневой снег 10/10 300 м
[Cb cap]
+1.9 +0.5 90 -4 -4 прохладно 1007.0 1005.7
СЗ 7
{11}
10 км {ливн. осадки} 8/8 300 м
[Sc Ac trans]
+1.7 +0.1 89 -5 -5 холодно 1009.6 1008.2 +1.4 1
СВ 8-10
{10}
10 км {ливн. осадки} 10/10 300 м
[Sc]
+2.1 +0.3 88 -5 -5 холодно 1012.3 1011.0
СЗ 8-10
{11}
10 км 8/6 300 м
[Sc Ci fib]
+2.1 -0.0 86 -5 -5 холодно 1015.0 1013.6
З 6
{10}
10 км 9/9 600 м
[Sc]
+2.2 -0.1 85 -4 -4 прохладно 1017.2 1015.9
СЗ 4 10 км 9/9 600 м
[Sc]
+2.1 +0.1 87 -3 -3 прохладно 1019.0 1017.6 +2.4
З 3 10 км 10/10 600 м
[Sc]
+2.2 +0.3 87 -2 -2 по сезону 1020.8 1019.4
ЮЗ 2 10 км 10/10 600 м
[Sc]
+1.4 +0.1 91 -2 -2 по сезону 1021.9 1020.5
Ю 1 10 км 10/10 600 м
[Sc]
+0.9 -0.2 92 -1 -1 по сезону 1022.6 1021.2
В 1 10 км 10/10 300 м
[Sc]
+2.4 +1.2 92 +1 +1 по сезону 1022.4 1021.1 +0.8
В 3 10 км 8/8 600 м
[Sc Ac trans]
+2.7 +1.0 89 -1 -1 по сезону 1021.9 1020.6
В 7 10 км 10/6 600 м
[Sc Ac und]
+2.9 +0.9 87 -3 -3 прохладно 1020.6 1019.3
В 10-11
{11}
10 км 10/10 600 м
[Sc]
+2.8 +0.7 86 -4 -4 прохладно 1018.6 1017.2
В 12-15
{15}
10 км 10/10 600 м
[Sc]
+3.0 +0.7 85 -5 -5 холодно 1016.0 1014.7 +3.2
В 9-12
{16}
10 км 8/8 600 м
[Sc]
+3.1 +0.9 85 -4 -4 прохладно 1014.2 1012.8
В 9-12
{12}
10 км 10/10 600 м
[Sc]
+3.2 +0.6 83 -4 -4 прохладно 1012.5 1011.2
ЮВ 5
{12}
10 км 10/10 600 м
[Sc]
+2.0 +0.4 89 -4 -4 прохладно 1012.3 1011.0
Ю 8-10
{11}
10 км 8/0
[Ac trans Ci fib]
+3.1 +1.6 90 -4 -4 прохладно 1013.6 1012.2 +1.7
Ю 8-10
{11}
10 км 8/0
[Ac trans Ci fib]
+2.6 +0.6 87 -4 -4 прохладно 1014.8 1013.5
ЮВ 7-10
{10}
10 км 6/0
[Ac trans Ci fib]
+3.5 +0.7 82 -2 -2 по сезону 1014.9 1013.6
ЮВ 8-10
{11}
10 км 9/0
[Ac trans]
+3.0 +0.8 85 -4 -4 прохладно 1014.7 1013.3
ЮВ 7
{11}
10 км 9/0
[Ac trans Ci fib]
+1.8 -0.3 86 -5 -5 холодно 1014.6 1013.3 +3.6
ЮВ 6 10 км 10/0
[Ac und]
+1.7 -0.3 87 -4 -4 прохладно 1014.2 1012.9
ЮВ 4 10 км 10/0
[Ac und]
+2.3 +0.1 85 -3 -3 прохладно 1013.4 1012.1
В 4 10 км 10/0
[Ac und]
+2.1 +0.7 90 -3 -3 прохладно 1012.0 1010.6
Ю 2 10 км 10/0
[Ac und]
+1.2 -0.5 88 -2 -2 по сезону 1011.1 1009.8 +1.2
С 3 20 км 10/6 600 м
[Sc Ac und]
+2.4 +0.3 86 -2 -2 по сезону 1009.6 1008.3
С 5 20 км 10/0
[Ac und]
+2.7 +0.4 85 -3 -3 прохладно 1007.2 1005.9
С 7
{10}
4000 м слаб. дождь 10/0 300 м
[As op]
+2.9 +2.0 94 -4 -4 прохладно 1004.5 1003.2
СЗ 5 4000 м слаб. дождь 10/10 300 м
[Frnb Ns]
+1.8 +0.7 92 -4 -4 прохладно 1002.0 1000.6 +2.9 3
З 8-10
{10}
4000 м слаб. снег {дождь} 10/10 300 м
[Frnb Ns]
+0.7 +0.2 96 -7 -7 холодно 1000.4 999.1
ЮЗ 11-13
{14}
4000 м слаб. дождь 10/10 300 м
[Frnb Ns]
+1.3 +0.5 94 -7 -7 холодно 1000.7 999.4
СВ 6
{14}
10 км {снег, дождь} 10/10 300 м
[Sc]
+1.6 +0.5 92 -5 -5 холодно 1002.1 1000.8
СВ 9-11
{11}
10 км 9/9 600 м
[Sc]
+1.4 -0.5 87 -6 -6 холодно 1003.2 1001.8 +0.4 5
Ю 8-10
{11}
10 км 9/9 600 м
[Sc]
+1.8 +0.4 90 -5 -5 холодно 1003.7 1002.4
Ю 9-11
{13}
10 км {ливн. осадки} 10/10 600 м
[Sc]
+2.0 +0.7 91 -5 -5 холодно 1004.0 1002.7
Ю 8-11
{13}
2000 м слаб. ливневой дождь 8/8 300 м
[Cb cap Ac trans]
+1.8 +0.6 92 -5 -5 холодно 1003.4 1002.1
Ю 9-12
{13}
2000 м слаб. ливневой снег 10/10 300 м
[Cb cap]
+1.3 +0.3 93 -6 -6 холодно 1002.3 1001.0 +2.5 3
Ю 8
{14}
2000 м слаб. ливневой дождь 8/8 600 м
[Cb cap]
+1.9 +0.7 92 -5 -5 холодно 1001.4 1000.0
Ю 6
{11}
2000 м слаб. ливневой дождь 9/9 600 м
[Cb cap]
+1.8 +0.6 92 -4 -4 прохладно 1000.4 999.1
Ю 8
{11}
2000 м слаб. ливневой дождь 10/10 600 м
[Cb cap]
+1.6 +0.4 92 -6 -6 холодно 1000.1 998.8
Ю 11-14
{14}
10 км {ливн. осадки} 8/3 300 м
[Sc Ci fib]
+1.5 -0.2 88 -7 -7 холодно 999.6 998.3 +1.3 2
Ю 8-12
{14}
2000 м слаб. ливневой дождь 9/8 300 м
[Cb cap Ac trans]
+1.0 -0.1 92 -6 -6 холодно 999.2 997.9 +1.0
Ю 10-13
{14}
2000 м слаб. ливневой дождь 9/8 300 м
[Cb cap Ac trans]
+2.4 +0.9 90 -5 -5 холодно 998.8 997.5
Ю 8-10
{13}
10 км {ливн. осадки} 10/10 300 м
[Sc]
+2.7 +1.0 89 -4 -4 прохладно 999.3 998.0
Ю 7
{10}
10 км 10/10 300 м
[Sc]
+2.7 +1.2 90 -4 -4 прохладно 999.2 997.9 +2.7 1
Ю 9-11
{11}
2000 м слаб. ливневой дождь 10/10 300 м
[Cb cap]
+3.0 +1.9 92 -4 -4 прохладно 998.6 997.3
ЮЗ 5
{11}
10 км {ливн. осадки} 10/10 600 м
[Sc]
+2.9 +1.8 92 -3 -3 прохладно 999.2 997.9
Ю 3 10 км {ливн. осадки} 10/10 300 м
[Sc]
+2.4 +1.3 92 -2 -2 по сезону 999.3 998.0
Ю 5 4000 м слаб. снег 10/0 300 м
[As op]
+2.7 +1.9 94 -3 -3 прохладно 999.1 997.8 +2.4 0.8
ЮЗ 2 4000 м слаб. дождь 10/0 300 м
[As op]
+2.7 +2.0 95 -1 -1 по сезону 999.5 998.2
З 3 4000 м слаб. дождь 10/0 300 м
[As op]
+2.6 +1.8 94 -2 -2 по сезону 999.8 998.5
ЮЗ 2 10 км {дождь} 8/0
[Ac trans]
+2.8 +1.4 90 -0 -0 по сезону 1000.5 999.2
Ю 3 10 км 8/0
[Ac trans]
+1.3 +0.4 94 -3 -3 прохладно 1001.1 999.8 +3.2 3
Ю 2 10 км 9/0
[Ac trans]
+0.9 +0.2 95 -3 -3 прохладно 1001.3 1000.0
СЗ 2 10 км 10/10 600 м
[Sc]
+2.2 0.0 85 -1 -1 по сезону 1001.6 1000.3
Местоположение метеостанции Имени Федорова (Ненецкий АО, Россия): широта 70.45 долгота 59.08 высота над уровнем моря 12 м.
В архиве по умолчанию представлена погода в Имени Федорова за последнюю неделю. Архивные данные за месяц целиком и за предыдущие месяцы, начиная с января 2011 года, Вы можете получить, выбрав интересующий диапазон дат из раскрывающегося списка и нажав кнопку "Найти!".
*Определитесь, кто Вы:
Внимание! Время в таблицах - всемирное. Для получения местного времени необходимо прибавить поправку, которая равна 3 ч.
Смотрите также архив погоды в соседних городах и на ближайших метеорологических станциях:
Партнеры нашего сайта:      
Пояснения к столбцам:
  • Ветер - указаны скорость ветра в м/с - средняя за 10 мин, порывы в срок и между сроками (в фигурных скобках) и направление, откуда дует ветер: С - северный,
  • СВ - северо-восточный, В - восточный, ЮВ - юго-восточный, Ю - южный, ЮЗ - юго-западный, З - западный, СЗ - северо-западный.
  • Видимость - горизонтальная дальность видимости в метрах или километрах. При видимости от 1 до 10 км при отсутствии осадков обычно наблюдается дымка, при ухудшении видимости до 1 км и менее - туман. В сухую погоду видимость может ухудшаться дымом, пылью или мглою.
  • Явления - указаны атмосферные явления, наблюдавшиеся в срок или в последний час перед сроком; фигурными скобками обозначены явления, наблюдавшиеся между сроками (за 1-3 часа до срока); квадратными скобками обозначены град или гололедные отложения с указанием их диаметра в мм.
  • Облачность - указаны через наклонную черту общая и нижняя облачность в баллах и высота нижней границы облаков в метрах; квадратными скобками обозначены формы облаков: Ci - перистые, Cs - перисто-слоистые, Cc - перисто-кучевые, Ac - высококучевые, As - высокослоистые, Sc - слоисто-кучевые, Ns - слоисто-дождевые, Cu - кучевые, Cb - кучево-дождевые. Подробнее классификацию облаков см. в Атласе облаков (PDF).
  • T - Температура воздуха - температура, измеренная на высоте 2 м над землей.
  • Td - Температура точки росы - температура, при понижении до которой содержащийся в воздухе водяной пар достигнет насыщения.
  • f - Относительная влажность воздуха - влажноcть воздуха, измеренная на высоте 2 м над землей.
  • Te - Эффективная температура - температура, которую ощущает одетый по сезону человек в тени. Характеристика душности погоды. При расчете учитывается влияние влажности воздуха и скорости ветра на теплоощущения человека.
  • Tes - Эффективная температура на солнце - температура, которую ощущает человек, с поправкой на солнечный нагрев. Характеристика знойности погоды. Зависит от высоты солнца над горизонтом, облачности и скорости ветра. Ночью, в пасмурную погоду, а также при ветре 12 м/с и более поправка равна нулю.
  • P - Атмосферное давление - приведенное к уровню моря атмосферное давление.
  • Po - Атмосферное давление - измеренное на уровне метеостанции атмосферное давление.
  • Tmin - Минимальная температура - минимум температуры воздуха на высоте 2 м над землей.
  • Tmax - Максимальная температура - максимум температуры воздуха на высоте 2 м над землей.
  • R - Количество осадков - Количество выпавших осадков за период времени, мм. При наведении курсора мыши на число - период времени, за который выпало указанное количество осадков.
  • R24 - Количество осадков - Количество выпавших осадков за 24 часа, мм.
  • S - Снежный покров - Высота снежного покрова, см. При наведении курсора мыши на число - состояние снежного покрова и степень покрытия местности в баллах.